Location: Zilina
(49.2167°N, 18.7333°E)
Time: 01:06:36
(UTC+02:00)

ISS - Visible Passes

Search period start: 06 May 2021 00:00
Search period end: 16 May 2021 00:00
Orbit: 418 x 421 km, 51.6° (Epoch: 05 May)

Date Brightness Start Highest point End Pass type
(mag) Time Alt. Az. Time Alt. Az. Time Alt. Az.
06 May -3.9 02:48:19 67° SW 02:48:43 83° SSE 02:52:07 10° ENE visible
06 May -3.1 04:22:22 10° W 04:25:42 54° N 04:29:02 10° ENE visible
07 May -2.6 02:02:24 37° E 02:02:24 37° E 02:04:40 10° ENE visible
07 May -3.2 03:35:20 13° W 03:38:12 57° N 03:41:33 10° ENE visible
08 May -1.2 01:16:27 15° E 01:16:27 15° E 01:17:10 10° ENE visible
08 May -3.4 02:49:24 33° W 02:50:43 64° NNW 02:54:05 10° ENE visible
08 May -3.2 04:24:25 10° WNW 04:27:47 60° N 04:31:08 10° E visible
09 May -3.6 02:03:25 73° NNE 02:03:25 73° NNE 02:06:38 10° ENE visible
09 May -3.1 03:36:57 10° WNW 03:40:16 55° N 03:43:37 10° E visible
10 May -2.1 01:17:25 28° ENE 01:17:25 28° ENE 01:19:11 10° ENE visible
10 May -3.1 02:50:21 17° WNW 02:52:46 54° N 02:56:06 10° ENE visible
10 May -3.7 04:26:23 10° WNW 04:29:46 87° NNE 04:33:10 10° ESE visible
11 May -1.0 00:31:23 12° ENE 00:31:23 12° ENE 00:31:43 10° ENE visible
11 May -3.2 02:04:18 39° WNW 02:05:15 57° N 02:08:36 10° ENE visible
11 May -3.5 03:38:56 10° WNW 03:42:18 70° NNE 03:45:41 10° E visible
12 May -3.1 01:18:13 55° NNE 01:18:13 55° NNE 01:21:08 10° ENE visible
12 May -3.2 02:51:27 10° WNW 02:54:49 60° N 02:58:10 10° E visible
13 May -2.0 00:32:03 26° ENE 00:32:03 26° ENE 00:33:39 10° ENE visible
13 May -3.1 02:04:58 18° WNW 02:07:18 55° N 02:10:38 10° E visible
13 May -3.8 03:40:51 10° WNW 03:44:14 71° SSW 03:47:35 10° ESE visible
13 May -1.3 23:45:40 14° ENE 23:45:40 14° ENE 23:46:12 10° ENE visible
14 May -3.0 01:18:33 33° WNW 01:19:47 54° N 01:23:07 10° ENE visible
14 May -3.8 02:53:23 10° WNW 02:56:47 87° NNE 03:00:10 10° ESE visible
14 May -1.9 21:17:21 10° SSE 21:19:06 14° SE 21:20:51 10° ESE visible
14 May -3.9 22:52:03 10° SW 22:55:23 62° SSE 22:58:43 10° ENE visible
15 May -3.1 00:28:56 10° W 00:32:15 57° N 00:35:36 10° ENE visible
15 May -3.5 02:05:56 10° WNW 02:09:18 70° NNE 02:12:41 10° E visible
15 May -3.1 03:42:53 10° W 03:46:00 35° SSW 03:49:06 10° SE visible
15 May -3.5 22:04:47 10° SW 22:07:59 43° SSE 22:11:13 10° ENE visible
15 May -3.4 23:41:24 10° W 23:44:45 64° N 23:48:07 10° ENE visible
